This is the latest recevied weather packets stored in our database for station/object KJ7HSW. If no packets are shown the sender has not sent any weather packets the latest 10 day(s).
| Time | Temp. | Humidity | Pressure | Rain* | Wind** | Luminosity | Snow |
|---|---|---|---|---|---|---|---|
| 1777563925 | 11.11° C | 83% | 1021.7 hPa | 0 mm | - | 294 W/m² | - |
| 1777563621 | 11.11° C | 84% | 1021.7 hPa | 0 mm | - | 251 W/m² | - |
| 1777563321 | 10.56° C | 86% | 1021.7 hPa | 0 mm | - | 250 W/m² | - |
| 1777563017 | 10° C | 89% | 1021.7 hPa | 0 mm | - | 230 W/m² | - |
| 1777562712 | 9.44° C | 91% | 1021.9 hPa | 0 mm | - | 124 W/m² | - |
| 1777562406 | 8.89° C | 92% | 1022 hPa | 0 mm | - | 141 W/m² | - |
| 1777562103 | 8.33° C | 94% | 1022.1 hPa | 0 mm | - | 92 W/m² | - |
| 1777561800 | 7.78° C | 94% | 1022.1 hPa | 0 mm | - | 90 W/m² | - |
| 1777561496 | 7.78° C | 95% | 1021.9 hPa | 0 mm | - | 84 W/m² | - |
| 1777561191 | 7.22° C | 95% | 1022.1 hPa | 0 mm | - | 83 W/m² | - |
| 1777560886 | 7.22° C | 96% | 1022.2 hPa | 0 mm | - | 81 W/m² | - |
| 1777560584 | 6.67° C | 96% | 1022.2 hPa | 0 mm | - | 78 W/m² | - |
| 1777560281 | 6.67° C | 96% | 1022.1 hPa | 0 mm | - | 76 W/m² | - |
| 1777559979 | 6.11° C | 96% | 1022 hPa | 0 mm | - | 74 W/m² | - |
| 1777559674 | 6.11° C | 96% | 1022.1 hPa | 0 mm | - | 71 W/m² | - |
| 1777559372 | 5.56° C | 96% | 1022 hPa | 0 mm | - | 69 W/m² | - |
| 1777559068 | 5.56° C | 96% | 1022.1 hPa | 0 mm | - | 66 W/m² | - |
| 1777558762 | 5.56° C | 96% | 1022.2 hPa | 0 mm | - | 63 W/m² | - |
| 1777558459 | 5° C | 96% | 1022.1 hPa | 0 mm | - | 60 W/m² | - |
| 1777558155 | 5° C | 96% | 1022.2 hPa | 0 mm | - | 56 W/m² | - |
| 1777557851 | 5° C | 97% | 1022.1 hPa | 0 mm | - | 52 W/m² | - |
| 1777557549 | 5° C | 97% | 1022.1 hPa | 0 mm | - | 49 W/m² | - |
| 1777557245 | 5° C | 97% | 1022.1 hPa | 0 mm | - | 46 W/m² | - |
| 1777556941 | 4.44° C | 97% | 1022.1 hPa | 0 mm | - | 43 W/m² | - |
| 1777556635 | 4.44° C | 97% | 1022.2 hPa | 0 mm | - | 39 W/m² | - |
* Rain latest hour (hover to see other rain measurements)
** Current wind speed in m/s (hover to see current wind gust speed)